Погода в Мишукове

Россия / Чувашская Республика     55°02′07″N   46°08′55″E
темп.,
°C
ветер,
м/с
пор.,
м/с
влажн.,
%
обл.,
%
осадки,
мм/ч
давл.,
гПа
погр.,
м
22 января, сб
сб2200:00−9ююв71592100 0.1 1013594
03:00−8ююв61395100 0.9 1013508
06:00−9юв5109599 0.3 1014332
09:00−8юв51095100 0.8 1015371
12:00−7юв5994100 0.7 1015412
15:00−6юв4996100 1.3 1016409
18:00−5юв2797100 0.6 1017325
21:00−4юв1498100 2.6 1018146
23 января, вс
вс2300:00−6ююз229875 0.8 101960
03:00−12ю1110099 0.9 102210
06:00−12ююв11100100 0.1 102410
09:00−12ююв11100100 0.1 102614
12:00−6юв1294100 0.0 1028113
15:00−6в1196100 0.0 103019
18:00−8ссв1198100 0.0 103210
21:00−9св1198100 0.1 103310
24 января, пн
пн2400:00−8ссв2297100 0.1 103528
03:00−8св1197100 0.4 103624
06:00−10ссв2299100 0.1 103617
09:00−9ссв2297100 0.1 103858
12:00−6всв249599 0.1 1038210
15:00−7вюв119751 0.1 103811
18:00−15вюв11976 0.0 10399
21:00−18вюв11985 0.0 10399
25 января, вт
вт2500:00−20юв11985 0.0 10389
03:00−21юв111005 0.0 10379
06:00−22ююв2210051 0.0 103610
09:00−21ююв2210057 0.0 103524
12:00−12ю25895 0.0 1032126
15:00−12ююв229247 0.0 103123
18:00−18ююв2298100 0.0 103012
21:00−18ююв2210071 0.0 102918
26 января, ср
ср2600:00−19ю229967 0.0 102821
03:00−17ю339997 0.0 102846
06:00−19ююв2210076 0.0 102717
09:00−19ююв2310078 0.0 102649
12:00−12ююв3694100 0.0 1025190
15:00−9ююв3795100 0.3 1024231
18:00−8ююв4995100 0.3 1023248
21:00−9ююв399571 0.4 1023239